#timestamp,LO_Frequency,Hit,StdDev 
1674770415.6,286046996.7,N
1674770435.4,286046996.3,N
1674770455.2,286046997.5,N
1674770475.1,286046997.6,N
1674770476.0,286046997.6,N
1674770495.8,286046997.5,N
1674770515.6,286046996.9,N
1674770535.5,286047001.2,N
1674770555.3,286046997.4,N
1674770575.2,286046996.8,N
1674770595.9,286046997.6,N
1674770615.7,286046995.0,N
1674770635.6,286046998.9,N
1674770655.4,286046997.3,N
1674770675.2,286046997.1,N
1674770695.1,286046997.7,N
1674770696.0,286046997.7,N
1674770715.8,286046995.6,N
1674770735.7,286046994.5,N
1674770755.5,286046994.2,N
1674770775.3,286046997.8,N
1674770795.2,286046997.2,N
1674770815.0,286046995.7,N
1674770815.9,286046995.7,N
1674770835.8,286046994.9,N
1674770855.6,286046992.1,N
1674770875.4,286046993.0,N
1674770895.3,286046992.8,Y
1674770915.1,286046995.5,P
1674770935.8,286046996.7,P
1674770955.7,286047000.5,N
1674770975.5,286047002.3,N
1674770995.4,286047001.4,N
1674771015.2,286047001.8,N
1674771035.0,286047002.7,N
1674771035.9,286047002.7,N
1674771055.8,286046998.7,N
1674771075.6,286046996.6,N
1674771095.4,286046995.3,N
1674771115.3,286046997.4,N
1674771135.1,286046999.3,N
1674771155.9,286046996.7,N
1674771175.7,286046998.3,N
1674771195.5,286046998.3,N
1674771215.4,286047000.6,N
1674771235.2,286047001.9,N
1674771255.0,286047002.9,N
1674771255.9,286047002.9,N
1674771275.8,286047002.2,N
1674771295.6,286046998.3,N
1674771315.5,286047000.3,N
1674771335.3,286047002.7,N
1674771355.1,286047000.0,N
1674771375.9,286047001.7,N
1674771395.7,286047002.0,N
1674771415.6,286046998.8,N
1674771435.4,286046998.1,N
1674771455.2,286047000.0,N
1674771475.1,286047000.8,N
1674771476.0,286047000.8,N
1674771495.8,286046998.2,N
1674771515.6,286047001.1,N
1674771535.5,286047001.0,N
1674771555.3,286046999.7,N
1674771575.2,286047001.4,N
1674771595.9,286047004.1,N
1674771615.7,286047003.9,N
1674771635.6,286046999.7,N
1674771655.4,286047000.2,N
1674771675.2,286047002.1,N
1674771695.1,286047002.2,N
1674771696.0,286047002.2,N
1674771715.8,286047004.3,N
1674771735.7,286047003.9,N
1674771755.5,286047002.0,N
1674771775.3,286047001.3,N
1674771795.2,286047002.7,N
1674771815.0,286046999.7,N
1674771815.9,286046999.7,N
1674771835.8,286047002.2,N
1674771855.6,286047004.4,N
1674771875.4,286047004.2,N
1674771895.3,286047003.9,N
1674771915.1,286047001.4,N
1674771916.0,286047001.4,N
1674771935.8,286047003.2,N
1674771955.7,286047005.6,Y
1674771975.5,286047004.0,P
1674771995.4,286047004.0,P
1674772015.2,286047002.1,N
1674772035.0,286047002.0,N
1674772035.9,286047002.0,N
1674772055.8,286047003.2,Y
1674772075.6,286047000.2,P
1674772095.4,286047000.9,N
1674772115.3,286046998.6,N
1674772135.1,286047001.2,N
1674772155.9,286046996.4,N
1674772175.7,286046993.7,Y
1674772195.5,286046994.6,P
1674772215.4,286046991.7,P
1674772235.2,286046992.2,N
1674772255.1,286046993.3,N
1674772256.0,286046993.3,N
1674772275.8,286046995.0,N
1674772295.6,286046999.6,N
1674772315.5,286046998.6,N
1674772335.3,286047001.1,N
1674772355.2,286046998.5,N
1674772375.9,286047000.8,N
1674772395.7,286047000.7,N
1674772415.6,286046999.3,N
1674772435.4,286046999.3,N
1674772455.2,286047000.9,N
1674772475.1,286047000.7,N
1674772476.0,286047000.7,N
1674772495.8,286047000.6,N
1674772515.7,286047000.7,N
1674772535.5,286047000.8,N
1674772555.3,286046999.7,N
1674772575.2,286047000.8,N
1674772595.0,286046998.2,N
1674772595.9,286046998.2,N
1674772615.8,286046999.4,N
1674772635.6,286046997.1,N
1674772655.4,286046995.2,N
1674772675.3,286046996.0,N
1674772695.1,286046996.3,N
1674772715.8,286046995.5,N
1674772735.7,286046999.5,N
1674772755.5,286046999.5,N
1674772775.4,286046995.5,N
1674772795.2,286046996.1,N
1674772815.0,286046995.8,N
1674772815.9,286046995.8,N
1674772835.8,286046995.7,N
1674772855.6,286046995.5,N
1674772875.5,286046997.3,N
1674772895.3,286046995.4,N
1674772915.1,286046995.4,N
1674772935.9,286046993.6,N
1674772955.7,286046993.9,N
1674772975.5,286046996.4,N
1674772995.4,286046994.2,N
1674773015.2,286046994.7,N
1674773035.1,286046996.4,N
1674773036.0,286046996.4,N
1674773055.8,286046993.3,Y
1674773075.6,286046999.3,P
1674773095.5,286046996.9,N
1674773115.3,286046998.8,N
1674773135.1,286046999.5,N
1674773155.9,286046997.0,N
1674773175.7,286047001.2,N
1674773195.6,286046998.6,N
1674773215.4,286047000.6,N
1674773235.2,286047000.5,N
1674773255.1,286046997.8,N
1674773256.0,286046997.8,N
1674773275.8,286046997.7,N
1674773295.7,286046995.1,Y
1674773315.5,286046996.5,P
1674773335.3,286047001.2,N
1674773355.2,286047001.1,N
1674773405.0,286047003.6,E
1674773415.9,286047001.9,N
1674773435.7,286047000.4,P
1674773455.5,286047000.4,N
1674773475.4,286046999.7,N
1674773495.2,286047000.3,N
1674773515.1,286047002.7,Y
1674773516.0,286047002.7,P
1674773535.8,286047000.2,N
1674773555.6,286047002.4,N
1674773575.5,286047002.8,N
1674773595.3,286047000.5,N
1674773615.2,286046998.5,N
1674773635.9,286046998.9,N
1674773655.7,286046996.6,N
1674773675.6,286046997.6,N
1674773695.4,286046993.5,Y
1674773715.2,286046994.8,P
1674773735.1,286046996.3,N
1674773736.0,286046996.3,N
1674773755.8,286046995.2,N
1674773775.7,286046997.8,N
1674773795.5,286046999.1,N
1674773815.3,286046998.1,N
1674773835.2,286046998.8,N
1674773855.0,286046999.6,N
1674773855.9,286046999.6,N
1674773875.8,286046998.8,N
1674773895.6,286046999.5,N
1674773915.4,286046996.9,N
1674773935.3,286046997.5,N
1674773955.1,286046992.0,Y
1674773975.8,286046997.9,P
1674773995.7,286046997.3,P
